Regional Weather Roundup
Issued by NWS

Home | Current Version | Previous Version | Text Only | Print | Product List | Glossary Off
Versions: 1 2 3 4 5 6 7 8 9 10 11 12 13 14 15 16 17 18 19 20 21 22 23 24 25 26 27 28 29 30 31 32 33 34 35 36 37 38 39 40 41 42 43 44 45 46 47 48 49 50

000
ASUS44 KOUN 301210
RWROK

WEATHER ROUNDUP FOR OKLAHOMA
NATIONAL WEATHER SERVICE NORMAN OK
700 AM CDT SUN APR 30 2017

NOTE: "FAIR" INDICATES FEW OR NO CLOUDS BELOW 12,000 FEET WITH NO
      SIGNIFICANT WEATHER AND/OR OBSTRUCTIONS TO VISIBILITY.

OKZ001>007-009>012-014-015-017-301300-
NORTHWEST OKLAHOMA AND THE PANHANDLE

CITY           SKY/WX    TMP DP  RH WIND       PRES   REMARKS
GAGE           CLOUDY    35  33  92 NW21G33   29.54F WCI  24
6HR MIN TEMP:  34; 6HR MAX TEMP:  40; 6HR PCP:  0.17;

ENID/WOODRING  CLOUDY    43  43 100 W6        29.50S
$$

OKZ016-021>023-033>039-044-045-301300-
SOUTHWEST OKLAHOMA

CITY           SKY/WX    TMP DP  RH WIND       PRES   REMARKS
LAWTON/REGL    CLOUDY    43  38  82 SW14G24   29.65S
6HR MIN TEMP:  43; 6HR MAX TEMP:  49; 6HR PCP: TRACE;

LAWTON/FT SILL CLOUDY    43  37  81 W16G24    29.63S
FREDERICK      MOCLDY    43  36  76 W23       29.65F WCI  34
CLINTON          N/A    N/A N/A N/A MISG      29.59F
HOBART         CLOUDY    40  37  89 W17       29.62F WCI  31
ALTUS AFB      CLOUDY    43  34  70 W18G24    29.65F WCI  34
$$

OKZ018>020-024>031-301300-
CENTRAL OKLAHOMA

CITY           SKY/WX    TMP DP  RH WIND       PRES   REMARKS
OKLAHOMA CITY  CLOUDY    45  43  93 SW17G26   29.55F
6HR MIN TEMP:  45; 6HR MAX TEMP:  47;

OKC/WILEY POST LGT RAIN  44  42  93 SW14G23   29.54S
OKC/TINKER AFB CLOUDY    44  40  84 SW16      29.55R
GUTHRIE        MOCLDY    46  43  89 SW9       29.54R
$$

OKZ008-013-054>072-301300-
NORTHEAST OKLAHOMA

CITY           SKY/WX    TMP DP  RH WIND       PRES   REMARKS
TULSA          CLOUDY    51  47  86 SW14      29.59R
6HR MIN TEMP:  51; 6HR MAX TEMP:  58; 6HR PCP: TRACE;

TULSA/JONES    CLOUDY    51  47  86 S10       29.59R
PONCA CITY     CLOUDY    46  43  89 S8        29.52R
BARTLESVILLE   CLOUDY    50  47  89 S12G18    29.56S
MUSKOGEE       PTCLDY    51  49  92 SW13G23   29.65R
$$

OKZ032-040>043-046>053-073>077-301300-
SOUTH CENTRAL/SOUTHEAST OKLAHOMA

CITY           SKY/WX    TMP DP  RH WIND       PRES   REMARKS
ARDMORE/DWNTWN CLOUDY    43  36  75 W9G20     29.69R
MCALESTER      CLOUDY    52  47  83 SW13      29.68R
$$




USA.gov is the U.S. government's official web portal to all federal, state and local government web resources and services.